Flag for U.S.A. Weather past 2 weeks in Stamford, Connecticut, U.S.A.

Now
23 °F

Snow. Ice fog.


Feels Like: 9 °F
Forecast: 18 / 25 °F
Wind: 18 mph from North

Location: Westchester County Airport

Current Time: Jan 27, 2015 at 1:00:55 AM

Latest Report: Jan 26, 2015 at 11:56 PM


Visibility: 0 mi

Pressure: 29.68 "Hg

Humidity: 85%

Dew point: 19 °F

Location of StamfordLocation

Historic Weather in Stamford — Graph

°F

Stamford temperature yesterday

Maximum temperature yesterday: 24 °F (at 5:56 PM)
Minimum temperature yesterday: 19 °F (at 10:56 AM)
Average temperature yesterday: 22 °F

Past Weeks' High & Low Weather Summary

 TemperatureHumidityPressure
High42 °F (Jan 18, 3:56 PM)100% (Jan 12, 1:04 PM)30.64 "Hg (Jan 12, 1:04 PM)
Low11 °F (Jan 13, 9:56 PM)26% (Jan 17, 2:56 PM)29.27 "Hg (Jan 24, 3:56 PM)
Average29 °F64%30.06 "Hg
* Reported Jan 11 11:56 PM — Jan 26 11:56 PM, Stamford, Weather by CustomWeather, © 2014

Note: Actual official high and low records may vary slightly from our data, if they occured in-between our weather recording intervals... More about our weather records

Advertising

Stamford weather history for previous 24 hours

 ConditionsComfort  
Time TempWeatherWind HumidityBarometerVisibility
11:56 PM
Jan 26
23 °FSnow. Ice fog.18 mph85%29.68 "Hg1 mi
10:56 PM24 °FLight snow. Ice fog.14 mph81%29.74 "Hg1 mi
9:56 PM24 °FLight snow. Ice fog.13 mph81%29.78 "Hg1 mi
8:56 PM24 °FLight snow. Ice fog.16 mph77%29.81 "Hg2 mi
7:56 PM24 °FLight snow. Ice fog.17 mph77%29.83 "Hg2 mi
6:56 PM24 °FLight snow. Ice fog.16 mph77%29.86 "Hg1 mi
5:56 PM24 °FLight snow. Ice fog.14 mph81%29.87 "Hg1 mi
4:56 PM23 °FLight snow. Ice fog.13 mph85%29.86 "Hg1 mi
3:56 PM23 °FLight snow. Ice fog.13 mph85%29.87 "Hg1 mi
2:56 PM22 °FLight snow. Ice fog.12 mph85%29.89 "Hg1 mi
1:56 PM22 °FLight snow. Ice fog.12 mph75%29.91 "Hg3 mi
12:56 PM21 °FLight snow. Ice fog.10 mph74%29.92 "Hg4 mi
11:56 AM20 °FLight snow. Ice fog.12 mph74%29.97 "Hg1 mi
10:56 AM19 °FLight snow. Ice fog.15 mph71%30.01 "Hg1 mi
9:56 AM20 °FLight snow. Ice fog.12 mph62%30.04 "Hg3 mi
8:56 AM21 °FLight snow. Overcast.12 mph52%30.03 "Hg7 mi
7:56 AM20 °FOvercast.9 mph55%30.02 "Hg9 mi
6:56 AM20 °FOvercast.9 mph50%30.02 "Hg10 mi
5:56 AM20 °FOvercast.6 mph52%30.02 "Hg10 mi
4:56 AM20 °FOvercast.7 mph48%30.02 "Hg10 mi
3:56 AM21 °FOvercast.6 mph45%30.03 "Hg10 mi
2:56 AM21 °FOvercast.6 mph45%30.03 "Hg10 mi
1:56 AM21 °FOvercast.7 mph43%30.03 "Hg10 mi
Weather by CustomWeather, © 2014

See weather overviewHow to use our weather pages